Tracking 29892 objects as of 21-Nov-2024
HD Live streaming from Space Station
objects crossing your sky now

STARLINK-31073

Track STARLINK-31073 now!
10-day predictions
STARLINK-31073 is classified as:


NORAD ID: 58773
Int'l Code: 2024-011J
Perigee: 558.0 km
Apogee: 559.6 km
Inclination: 53.2 °
Period: 95.7 minutes
Semi major axis: 6929 km
RCS: Unknown
Launch date: January 14, 2024
Source: United States (US)
Launch site: AIR FORCE WESTERN TEST RANGE (AFWTR)
Your satellite tracking list
Your tracking list is empty




NASA's NSSDC Master Catalog

Two Line Element Set (TLE):
1 58773U 24011J   24325.18379962  .00002798  00000-0  21463-3 0  9994
2 58773  53.1602  16.2722 0001180  86.5083 273.6042 15.04946645 48212
Source of the keplerian elements: AFSPC